Regional Weather Roundup
Issued by NWS Sterling, VA

Home | Current Version | Previous Version | Graphics & Text | Print | Product List | Glossary On
Versions: 1 2 3 4 5 6 7 8 9 10 11 12 13 14 15 16 17 18 19 20 21 22 23 24 25 26 27 28 29 30 31 32 33 34 35 36 37 38 39 40 41 42 43 44 45 46 47 48 49 50
000
ASUS41 KLWX 271710
RWRLWX

REGIONAL WEATHER ROUNDUP
NATIONAL WEATHER SERVICE BALTIMORE MD/WASHINGTON DC
100 PM EDT THU AUG 27 2015

Note: "FAIR" indicates few or no clouds below 12,000 feet
with no significant weather and/or obstructions to visibility.
 TC=TEMPERATURE CELSIUS

 * =Non NWS site. Station does not report precipitation (e.g. rain,
    snow, etc.), thunder, or fog.

DCZ001-MDZ009-015-VAZ040>042-051-053>054-271800-
WASHINGTON METRO

CITY           SKY/WX    TMP DP  RH WIND       PRES   REMARKS
WASHINGTON NAT MOSUNNY   78  55  44 E6        30.12F
DULLES         MOSUNNY   78  54  43 N8        30.13F
ANDREWS AFB    SUNNY     78  52  40 W7        30.11F
FT BELVOIR     SUNNY     78  55  44 W8        30.12F
QUANTICO       MOSUNNY   77  54  44 E6        30.13F
COLLEGE PARK*  SUNNY     77  52  41 CALM      30.11F
LEESBURG*      MOSUNNY   77  59  53 N9        30.14F
MANASSAS*      SUNNY     77  55  47 CALM      30.13F
GAITHERSBURG*  PTSUNNY   75  54  46 E3        30.16F

$$

MDZ006>007-011-014-271800-
BALTIMORE METRO

CITY           SKY/WX    TMP DP  RH WIND       PRES   REMARKS
BWI AIRPORT    MOSUNNY   76  55  48 NW8       30.11F
MD SCIENCE CTR   N/A     76  52  43 MISG      30.11F
ANNAPOLIS      MOSUNNY   76  55  48 NW5       30.11F
FORT MEADE*    PTSUNNY   77  54  44 NW3       30.14S

$$

MDZ012-015-019>023-271800-
MARYLAND EASTERN SHORE

CITY           SKY/WX    TMP DP  RH WIND       PRES   REMARKS
OCEAN CITY     CLOUDY    78  56  46 NW5       30.09F
SALISBURY      CLOUDY    75  58  55 NW7       30.10F
BAY BRIDGE AP*   N/A     73  55  53 N6        30.12F
CAMBRIDGE*     SUNNY     77  55  47 NW5       30.10F
EASTON*        PTSUNNY   77  57  50 N5        30.15F

$$

MDZ017>025-271800-
SOUTHERN MARYLAND

CITY           SKY/WX    TMP DP  RH WIND       PRES   REMARKS
PATUXENT RIVER PTSUNNY   77  60  55 NE8       30.11F
ST INIGOES     MOSUNNY   78  60  53 VRB5      30.10F
LEONARDTOWN*   MOSUNNY   75  55  50 CALM      30.13F

$$

MDZ003>005-271800-
NORTH CENTRAL MARYLAND

CITY           SKY/WX    TMP DP  RH WIND       PRES   REMARKS
FREDERICK*     PTSUNNY   77  57  50 W6        30.15F
HAGERSTOWN APT MOSUNNY   77  50  38 NW12      30.14S
WESTMINSTER*   MOSUNNY   73  54  49 N8        30.14S

$$

MDZ501>502-271800-
WESTERN MARYLAND

CITY           SKY/WX    TMP DP  RH WIND       PRES   REMARKS
OAKLAND*       CLOUDY    61  48  63 N5        30.23F
CUMBERLAND*    PTSUNNY   73  52  46 CALM      30.19F

$$

VAZ025>031-271800-
SHENANDOAH VALLEY

CITY           SKY/WX    TMP DP  RH WIND       PRES   REMARKS
WINCHESTER*    CLOUDY    77  50  38 NW6       30.15S
FRONT ROYAL*   PTSUNNY   73  52  46 W5        30.13F
LURAY*         CLOUDY    73  52  46 NW6       30.15S
NEW MARKET*    CLOUDY    74  54  49 CALM      30.13F
STAUNTON*      PTSUNNY   76  54  45 E5        30.18S
WAYNESBORO*    CLOUDY    75  54  47 N3        30.16F

$$

WVZ021-048>050-054>055-271800-
EASTERN WEST VIRGINIA PANHANDLE

CITY           SKY/WX    TMP DP  RH WIND       PRES   REMARKS
MARTINSBURG    MOSUNNY   75  53  46 VRB5G16   30.15S
PETERSBURG*    MOSUNNY   74  53  47 CALM      30.16F

$$

VAZ036>039-050-271800-
CENTRAL FOOTHILLS

CITY           SKY/WX    TMP DP  RH WIND       PRES   REMARKS
CHARLOTTESVILL MOSUNNY   77  55  46 E6        30.14F
CULPEPER*      SUNNY     75  56  51 N6        30.14F
ORANGE*        SUNNY     79  54  41 NW5       30.14F
GORDONSVILLE*  FAIR      78  54  43 CALM      30.13S
WARRENTON*     FAIR      79  59  50 NW3       30.13F

$$

VAZ055>057-271800-
NORTH AND CENTRAL PIEDMONT

CITY           SKY/WX    TMP DP  RH WIND       PRES   REMARKS
FREDERICKSBRG* SUNNY     79  55  43 N8        30.12F
STAFFORD*      SUNNY     76  54  46 N7        30.17F

$$

NCZ024-NYZ072-PAZ021-071-VAZ022-071-271800-
OTHER REGIONAL OBSERVATIONS

CITY           SKY/WX    TMP DP  RH WIND       PRES   REMARKS
NEW YORK CITY  SUNNY     80  51  36 VRB6      30.08F
PHILADELPHIA   PTSUNNY   79  53  40 W12       30.09F
PITTSBURGH     CLOUDY    69  54  58 NW6       30.19S
ROANOKE        PTSUNNY   74  56  53 CALM      30.17F
RICHMOND       PTSUNNY   79  57  46 VRB3      30.11F
RALEIGH        PTSUNNY   80  60  50 NE8       30.09F

$$

ANZ530>537-271800-
MARINE OBSERVATIONS

STATION/POSITION TIME  TEMP    WIND        PRES
                       AIR SEA DIR/SP/G
                 (UTC) (F)     (DEG/KT/KT) (MB)
THOMAS PT LIGHT  1700   71 79   50/  6/  7 1020.4
BALT KEY BRIDGE  1600   72     270/  6/  7 1019.9F
COVE POINT       1600   71      10/  8/ 13 1021.0S
LEWISETTA        1600   73 78   10/  7/ 10 1019.7F
SOLOMONS ISLAND  1600      80                N/A
PINEY POINT      1600          320/  4/  6   N/A

$$



USA.gov is the U.S. government's official web portal to all federal, state and local government web resources and services.